Главная страница
METAR-TAF:

METAR-TAF

Аэропорты :

Pocono Mountains Municipal Airport

Mount Pocono, Пенсильвания, США

широта: 41-08-20N, долгота: 075-23-46W, высота над уровнем моря: 584 м

Текущие метеонаблюдения

Эта сводка был подготовлена 9 минут назад, в 12:53 UTC
Штиль
Температура -13°C
Влажность 100%
Давление 1029 hPa
Видимость: 16.1 км
ясное небо

METAR: KMPO 081253Z AUTO 00000KT 10SM CLR M13/M13 A3040 RMK AO2 SLP333 T11281133

Время: 08:02 (13:02 UTC)


TAF: отсутствует

Метеонаблюдения и прогнозы для более 4000 аэропортов (сводки METAR и TAF).

Имеющиеся станции представлены на карте желтыми и красными точками.

Чтобы увидеть название станции, наведите на нее мышь.

Затем щелкните, чтобы увидеть метеонаблюдения и метеопрогнозы.

Управление картой: чтобы увеличить масштаб, щелкните зеленые кнопки с черным крестиком; чтобы уменьшить масштаб, щелкните зеленую кнопку с тире; для просмотра соседних карт щелкайте зеленые стрелки.


METAR-TAF: